Weather reports worldwide

Advertisment
Stornoway, United Kingdom (3026): temperature & dewpoint: 24.09.2020 06:00:00 - 30.09.2020 06:00:00 (BST)Stornoway, United Kingdom (3026): temperature -20cm & temperature -100cm: 24.09.2020 06:00:00 - 30.09.2020 06:00:00 (BST)Stornoway, United Kingdom (3026): wind speed & gusts: 24.09.2020 06:00:00 - 30.09.2020 06:00:00 (BST)Stornoway, United Kingdom (3026): wind direction: 24.09.2020 06:00:00 - 30.09.2020 06:00:00 (BST)Stornoway, United Kingdom (3026): reduced air pressure: 24.09.2020 06:00:00 - 30.09.2020 06:00:00 (BST)Stornoway, United Kingdom (3026): visibility: 24.09.2020 06:00:00 - 30.09.2020 06:00:00 (BST)Stornoway, United Kingdom (3026): sunshine duration: 24.09.2020 06:00:00 - 30.09.2020 06:00:00 (BST)Stornoway, United Kingdom (3026): precipitation: 24.09.2020 06:00:00 - 30.09.2020 06:00:00 (BST)
Date & Time tt [°C] td [°C] tt -20cm [°C] tt -100cm [°C] ff [km/h] ff [kn] fx [km/h] fx [kn] dd ppp [hPa] vv [km] sd [min] rr [mm]
30.09.2020 06:00:00 11,8 8,9 - - 39 21 54 29 SSE 993,8 45 0 0,6
30.09.2020 05:00:00 11,0 7,9 - - 28 15 46 25 SE 995,1 14 0 0,8
30.09.2020 04:00:00 11,1 6,6 - - 31 17 46 25 SE 996,6 35 0 0,0
30.09.2020 03:00:00 11,0 7,1 - - 35 19 50 27 SE 998,5 25 0 0,2
30.09.2020 02:00:00 11,7 7,0 - - 31 17 52 28 SSE 1000,3 35 0 0,0
30.09.2020 01:00:00 11,9 7,1 - - 29 16 50 27 SSE 1001,6 60 - 0,0
30.09.2020 00:00:00 11,8 7,4 - - 29 16 46 25 SSE 1002,9 65 0 0,0
29.09.2020 23:00:00 12,0 7,7 - - 31 17 46 25 SSE 1004,3 60 0 0,0
29.09.2020 22:00:00 12,1 8,4 - - 35 19 52 28 S 1005,4 45 0 0,0
29.09.2020 21:00:00 12,1 8,2 - - 34 18 50 27 S 1006,5 50 0 0,0
29.09.2020 20:00:00 12,1 9,2 - - 26 14 - - S 1007,1 40 0 0,0
29.09.2020 19:00:00 12,2 9,6 - - 26 14 - - S 1008,1 40 0 0,0
29.09.2020 18:00:00 12,1 9,0 - - 26 14 - - S 1008,6 45 0 0,0
29.09.2020 17:00:00 11,9 10,2 - - 28 15 - - S 1009,2 40 0 0,6
29.09.2020 16:00:00 12,1 9,6 - - 26 14 - - S 1009,8 23 12 0,0
29.09.2020 15:00:00 12,0 9,3 - - 28 15 - - S 1010,4 60 24 0,4
29.09.2020 14:00:00 13,2 9,9 - - 28 15 - - S 1011,0 50 48 0,0
29.09.2020 13:00:00 12,6 9,4 - - 29 16 - - S 1011,6 50 42 0,0
29.09.2020 12:00:00 12,4 9,6 - - 24 13 - - S 1012,2 55 36 0,0
29.09.2020 11:00:00 12,1 10,3 - - 22 12 - - S 1012,6 50 18 0,8
29.09.2020 10:00:00 11,2 9,3 11,5 12,2 9 5 - - S 1012,8 45 24 0,0
29.09.2020 09:00:00 9,9 8,5 - - 13 7 - - S 1012,9 40 12 0,0
29.09.2020 08:00:00 7,3 7,0 - - 2 1 - - SSW 1013,1 45 0 0,0
29.09.2020 07:00:00 6,5 6,1 - - 5 3 - - SW 1012,7 40 0 0,0
29.09.2020 06:00:00 6,0 5,5 - - 5 3 - - WSW 1012,6 45 0 0,0
29.09.2020 05:00:00 5,6 4,9 - - 8 4 - - W 1012,4 40 0 0,0
29.09.2020 04:00:00 7,2 6,1 - - 9 5 - - SW 1012,5 45 0 0,0
29.09.2020 03:00:00 7,6 6,3 - - 11 6 - - SW 1012,5 45 0 0,0
29.09.2020 02:00:00 8,7 7,4 - - 11 6 - - SSW 1012,3 45 0 0,0
29.09.2020 01:00:00 7,6 6,1 - - 11 6 50 27 SSW 1011,9 50 - 0,0
29.09.2020 00:00:00 8,4 7,3 - - 15 8 - - SW 1011,6 50 0 0,0
28.09.2020 23:00:00 7,8 6,5 - - 15 8 - - SW 1011,1 55 0 0,0
28.09.2020 22:00:00 8,7 7,4 - - 9 5 - - SSW 1010,6 60 0 0,0
28.09.2020 21:00:00 8,8 7,4 - - 16 9 - - SW 1010,0 55 0 0,0
28.09.2020 20:00:00 9,5 7,5 - - 18 10 - - SW 1009,3 60 0 0,0
28.09.2020 19:00:00 10,9 8,5 - - 22 12 - - SW 1008,3 50 6 0,0
28.09.2020 18:00:00 11,5 8,6 - - 29 16 - - WSW 1007,7 50 30 0,2
28.09.2020 17:00:00 12,5 9,3 - - 31 17 50 27 WSW 1006,9 60 36 0,0
28.09.2020 16:00:00 12,0 10,7 - - 15 8 - - SW 1006,4 75 6 0,6
28.09.2020 15:00:00 13,2 8,7 - - 16 9 - - WSW 1006,3 75 48 0,0
28.09.2020 14:00:00 12,4 10,3 - - 22 12 - - W 1006,3 75 36 0,0
28.09.2020 13:00:00 12,6 10,4 - - 28 15 48 26 W 1005,6 75 36 0,0
28.09.2020 12:00:00 12,9 11,2 - - 34 18 59 32 WSW 1004,7 75 30 0,0
28.09.2020 11:00:00 12,8 11,3 - - 42 23 63 34 WSW 1003,2 50 12 0,0
28.09.2020 10:00:00 12,9 12,2 11,4 12,5 46 25 74 40 S 1002,0 20 0 0,0
28.09.2020 09:00:00 12,6 11,8 - - 39 21 57 31 S 1002,1 23 0 0,0
28.09.2020 08:00:00 12,0 11,3 - - 31 17 50 27 S 1002,8 5 0 0,2
28.09.2020 07:00:00 11,7 11,3 - - 31 17 48 26 S 1003,6 7 0 1,2
28.09.2020 06:00:00 12,0 11,2 - - 35 19 50 27 S 1004,3 6 0 1,0
28.09.2020 05:00:00 11,6 10,6 - - 29 16 46 25 SSW 1005,5 12 0 0,0
28.09.2020 04:00:00 11,1 9,8 - - 31 17 - - S 1006,0 40 0 0,2
28.09.2020 03:00:00 11,4 9,4 - - 22 12 - - S 1006,6 23 0 0,0
28.09.2020 02:00:00 11,3 9,7 - - 28 15 48 26 S 1007,5 45 0 0,6
28.09.2020 01:00:00 11,9 8,6 - - 34 18 46 25 SSW 1008,2 45 - 0,0
28.09.2020 00:00:00 11,8 8,0 - - 28 15 50 27 S 1009,1 60 0 0,0
27.09.2020 23:00:00 11,7 7,1 - - 29 16 - - S 1009,7 70 0 0,0
27.09.2020 22:00:00 11,4 7,6 - - 34 18 46 25 S 1010,2 55 0 0,0
27.09.2020 21:00:00 11,2 8,4 - - 28 15 - - S 1010,9 50 0 0,0
27.09.2020 20:00:00 11,2 8,1 - - 34 18 46 25 SSW 1011,1 55 0 0,0
27.09.2020 19:00:00 11,0 8,0 - - 34 18 - - S 1011,4 45 0 0,0
27.09.2020 18:00:00 10,8 7,6 - - 29 16 - - SSW 1012,3 50 0 0,0
27.09.2020 17:00:00 10,6 5,7 - - 22 12 - - S 1012,7 45 0 0,0
27.09.2020 16:00:00 10,1 4,7 - - 16 9 - - S 1013,3 55 0 0,0
27.09.2020 15:00:00 9,7 5,0 - - 15 8 - - S 1014,0 45 0 0,0
27.09.2020 14:00:00 9,5 4,7 - - 18 10 - - S 1014,7 45 0 0,0
27.09.2020 13:00:00 9,3 4,6 - - 13 7 - - S 1015,2 45 0 0,0
27.09.2020 12:00:00 9,4 4,1 - - 15 8 - - SSE 1015,8 45 0 0,0
27.09.2020 11:00:00 9,0 5,3 - - 18 10 - - SE 1016,4 45 6 0,0
27.09.2020 10:00:00 9,0 5,8 - - 16 9 - - SE 1016,9 45 24 0,0
27.09.2020 09:00:00 8,8 5,9 - - 11 6 - - SE 1017,4 45 42 0,0
27.09.2020 08:00:00 6,8 4,8 - - 13 7 - - SE 1017,9 45 0 0,0
27.09.2020 07:00:00 6,7 4,5 - - 9 5 - - SSE 1018,6 45 0 0,0
27.09.2020 06:00:00 5,8 3,5 - - 11 6 - - SE 1018,7 45 0 0,0
27.09.2020 05:00:00 5,6 4,1 - - 11 6 - - ESE 1019,4 27 0 0,0
27.09.2020 04:00:00 5,7 4,6 - - 15 8 - - ESE 1019,9 28 0 0,0
27.09.2020 03:00:00 5,8 4,7 - - 11 6 - - ESE 1020,7 30 0 0,0
27.09.2020 02:00:00 5,7 4,5 - - 11 6 - - E 1021,2 24 0 0,0
27.09.2020 01:00:00 6,6 5,1 - - 9 5 46 25 E 1022,0 30 - 0,0
27.09.2020 00:00:00 7,6 5,4 - - 11 6 - - E 1022,0 26 0 0,0
26.09.2020 23:00:00 8,1 5,3 - - 15 8 - - E 1022,2 30 0 0,0
26.09.2020 22:00:00 8,9 5,0 - - 15 8 - - ENE 1022,7 35 0 0,0
26.09.2020 21:00:00 9,7 5,1 - - 18 10 - - ENE 1022,5 35 0 0,0
26.09.2020 20:00:00 10,0 4,2 - - 18 10 - - NE 1023,0 40 0 0,0
26.09.2020 19:00:00 10,1 4,5 - - 21 11 - - ENE 1022,5 35 12 0,0
26.09.2020 18:00:00 10,9 4,6 - - 18 10 - - NE 1022,1 35 54 0,0
26.09.2020 17:00:00 11,4 4,4 - - 22 12 - - NE 1022,0 40 36 0,0
26.09.2020 16:00:00 11,9 4,9 - - 21 11 - - NE 1022,1 26 30 0,0
26.09.2020 15:00:00 12,5 6,6 - - 22 12 - - NE 1022,3 28 48 0,0
26.09.2020 14:00:00 12,1 5,7 - - 22 12 - - NE 1022,2 29 54 0,0
26.09.2020 13:00:00 12,3 6,6 - - 21 11 - - NE 1022,1 24 60 0,0
26.09.2020 12:00:00 11,6 6,0 - - 24 13 - - NE 1021,7 22 24 0,0
26.09.2020 11:00:00 11,2 6,9 - - 28 15 - - N 1021,7 21 42 0,0
26.09.2020 10:00:00 10,8 5,7 - - 24 13 - - NE 1021,0 27 48 0,0
26.09.2020 09:00:00 8,6 6,2 - - 15 8 - - N 1020,3 27 24 0,0
26.09.2020 08:00:00 7,7 5,0 - - 21 11 - - N 1019,6 30 0 0,0
26.09.2020 07:00:00 7,6 4,8 - - 18 10 - - N 1019,0 24 0 0,0
26.09.2020 06:00:00 7,7 5,2 - - 18 10 - - N 1018,5 29 0 0,0
26.09.2020 05:00:00 8,6 6,0 - - 26 14 - - N 1018,1 5 0 0,0
26.09.2020 04:00:00 8,2 5,3 - - 22 12 - - N 1017,6 19 0 0,0
26.09.2020 03:00:00 8,0 5,2 - - 22 12 - - N 1017,2 25 0 0,0
26.09.2020 02:00:00 7,8 4,6 - - 24 13 - - N 1016,9 22 0 0,0
26.09.2020 01:00:00 7,3 5,1 - - 21 11 - - N 1016,9 19 - 0,0
26.09.2020 00:00:00 6,5 4,8 - - 15 8 - - NNW 1016,9 60 0 0,0
25.09.2020 23:00:00 7,6 5,8 - - 22 12 - - N 1016,7 27 0 0,2
25.09.2020 22:00:00 6,8 5,4 - - 29 16 - - NNW 1016,9 60 0 0,0
25.09.2020 21:00:00 7,0 5,3 - - 24 13 - - NNW 1016,8 60 0 0,0
25.09.2020 20:00:00 6,2 4,2 - - 15 8 - - NNW 1016,6 50 0 0,0
25.09.2020 19:00:00 6,6 3,9 - - 21 11 46 25 NW 1016,4 75 12 0,0
25.09.2020 18:00:00 8,8 3,2 - - 28 15 - - NNW 1016,0 20 42 0,0
25.09.2020 17:00:00 10,2 3,3 - - 31 17 - - NNW 1015,6 25 60 0,0
25.09.2020 16:00:00 10,3 3,9 - - 31 17 - - N 1015,7 29 54 0,0
25.09.2020 15:00:00 10,1 3,0 - - 31 17 48 26 NNW 1015,7 35 30 0,0
25.09.2020 14:00:00 10,6 3,6 - - 31 17 48 26 N 1015,5 30 48 0,0
25.09.2020 13:00:00 10,4 4,8 - - 37 20 48 26 N 1014,9 25 36 0,0
25.09.2020 12:00:00 8,5 5,4 - - 28 15 48 26 NNE 1014,5 4,3 42 0,0
25.09.2020 11:00:00 9,4 5,2 - - 34 18 46 25 N 1013,6 45 6 0,0
25.09.2020 10:00:00 8,7 5,5 11,9 12,9 26 14 - - N 1012,8 30 0 0,0
25.09.2020 09:00:00 8,5 5,9 - - 22 12 - - N 1011,9 30 0 0,0
25.09.2020 08:00:00 8,0 5,2 - - 18 10 - - N 1011,2 40 0 0,0
25.09.2020 07:00:00 8,3 6,0 - - 22 12 - - N 1010,1 30 0 0,0
25.09.2020 06:00:00 7,9 5,8 - - 18 10 46 25 N 1009,4 40 0 0,4
25.09.2020 05:00:00 6,9 5,5 - - 21 11 - - NNW 1009,1 7 0 2,4
25.09.2020 04:00:00 7,9 7,0 - - 26 14 - - NNW 1008,0 7 0 0,0
25.09.2020 03:00:00 8,4 6,8 - - 13 7 - - N 1006,9 60 0 0,0
25.09.2020 02:00:00 7,7 6,7 - - 18 10 - - N 1006,3 70 0 0,2
25.09.2020 01:00:00 5,4 4,2 - - 9 5 - - WNW 1005,5 75 - 0,0
25.09.2020 00:00:00 4,9 3,0 - - 9 5 - - WNW 1004,8 75 0 0,0
24.09.2020 23:00:00 5,4 3,4 - - 9 5 - - W 1004,1 75 0 0,0
24.09.2020 22:00:00 4,9 3,4 - - 5 3 - - W 1003,3 40 0 0,0
24.09.2020 21:00:00 6,0 4,1 - - 5 3 - - W 1002,4 40 0 0,0
24.09.2020 20:00:00 7,6 4,4 - - 8 4 - - WNW 1001,5 60 12 0,0
24.09.2020 19:00:00 9,6 5,3 - - 4 2 - - ESE 1000,4 65 18 0,0
24.09.2020 18:00:00 9,6 5,3 - - 5 3 - - E 999,7 70 0 0,0
24.09.2020 17:00:00 10,8 5,0 - - 9 5 - - ENE 999,1 75 24 0,0
24.09.2020 16:00:00 11,3 5,1 - - 9 5 - - ENE 998,5 75 60 0,0
24.09.2020 15:00:00 11,8 5,2 - - 9 5 - - NE 998,0 70 60 0,0
24.09.2020 14:00:00 11,7 5,6 - - 8 4 - - ENE 997,3 75 60 0,0
24.09.2020 13:00:00 11,5 5,9 - - 9 5 - - NE 996,8 65 60 0,0
24.09.2020 12:00:00 11,3 6,0 - - 8 4 - - NE 996,3 65 54 0,0
24.09.2020 11:00:00 10,6 6,5 - - 8 4 - - E 996,0 75 60 0,0
24.09.2020 10:00:00 7,1 6,3 12,4 13,0 2 1 - - NW 995,6 75 60 0,0
24.09.2020 09:00:00 4,7 4,0 - - 8 4 - - NW 995,2 75 18 0,0
24.09.2020 08:00:00 3,5 3,0 - - 8 4 - - NW 994,9 60 0 0,0
24.09.2020 07:00:00 3,4 2,9 - - 8 4 - - NW 994,8 75 0 0,0
24.09.2020 06:00:00 3,6 2,9 - - 2 1 - - NNE 994,9 65 0 0,0

tt = temperature
td = dewpoint
tt -20cm = temperature -20cm
tt -100cm = temperature -100cm
ff = wind speed
fx = gusts
dd = wind direction
ppp = reduced air pressure
vv = visibility
sd = sunshine duration
rr = precipitation

Next stations